| time (UTC) | temp C | wind direction | speed KPH | gust KPH | rain 1hr cm | rain 24hr cm | rain mn cm | humidity % | barometer mb |
| 20260509202516 | 14 | 75 | 0.0 | 1.6 | 0.00 | 0.00 | 0.00 | 42 | 1021.0 |
| 20260509201518 | 14 | 21 | 1.6 | 3.2 | 0.00 | 0.00 | 0.00 | 42 | 1020.9 |
| 20260509200517 | 14 | 25 | 1.6 | 1.6 | 0.00 | 0.00 | 0.00 | 42 | 1020.7 |
| 20260509195516 | 14 | 52 | 0.0 | 1.6 | 0.00 | 0.00 | 0.00 | 42 | 1020.6 |
| 20260509194518 | 14 | 18 | 0.0 | 1.6 | 0.00 | 0.00 | 0.00 | 41 | 1020.5 |
| 20260509193518 | 15 | 12 | 1.6 | 3.2 | 0.00 | 0.00 | 0.00 | 41 | 1020.3 |
| 20260509192517 | 15 | 3 | 1.6 | 3.2 | 0.00 | 0.00 | 0.00 | 41 | 1020.1 |
| 20260509191518 | 15 | 8 | 1.6 | 1.6 | 0.00 | 0.00 | 0.00 | 42 | 1019.8 |
| 20260509190518 | 15 | 24 | 0.0 | 1.6 | 0.00 | 0.00 | 0.00 | 42 | 1019.7 |
| 20260509185516 | 15 | 9 | 1.6 | 1.6 | 0.00 | 0.00 | 0.00 | 41 | 1019.7 |
| 20260509184519 | 15 | 71 | 0.0 | 1.6 | 0.00 | 0.00 | 0.00 | 39 | 1019.6 |
| 20260509183518 | 15 | 30 | 0.0 | 1.6 | 0.00 | 0.00 | 0.00 | 37 | 1019.5 |
| 20260509182517 | 15 | 24 | 0.0 | 1.6 | 0.00 | 0.00 | 0.00 | 37 | 1019.4 |
| 20260509181518 | 15 | 312 | 0.0 | 1.6 | 0.00 | 0.00 | 0.00 | 37 | 1019.3 |
| 20260509180517 | 15 | 313 | 0.0 | 1.6 | 0.00 | 0.00 | 0.00 | 37 | 1019.2 |
| 20260509175516 | 15 | 3 | 0.0 | 1.6 | 0.00 | 0.00 | 0.00 | 37 | 1019.1 |
| 20260509174518 | 15 | 326 | 0.0 | 1.6 | 0.00 | 0.00 | 0.00 | 37 | 1019.1 |
| 20260509173518 | 15 | 305 | 0.0 | 3.2 | 0.00 | 0.00 | 0.00 | 37 | 1019.0 |
| 20260509172516 | 15 | 62 | 0.0 | 1.6 | 0.00 | 0.00 | 0.00 | 37 | 1018.9 |
| 20260509171518 | 16 | 32 | 0.0 | 1.6 | 0.00 | 0.00 | 0.00 | 36 | 1018.8 |
| 20260509170517 | 16 | 358 | 0.0 | 3.2 | 0.00 | 0.00 | 0.00 | 36 | 1018.8 |
| 20260509165516 | 16 | 3 | 0.0 | 3.2 | 0.00 | 0.00 | 0.00 | 35 | 1018.8 |
| 20260509164518 | 16 | 31 | 0.0 | 3.2 | 0.00 | 0.00 | 0.00 | 36 | 1018.7 |
| 20260509163517 | 16 | 292 | 1.6 | 3.2 | 0.00 | 0.00 | 0.00 | 36 | 1018.7 |
| 20260509162519 | 16 | 313 | 1.6 | 3.2 | 0.00 | 0.00 | 0.00 | 37 | 1018.7 |
| 20260509161518 | 16 | 17 | 0.0 | 1.6 | 0.00 | 0.00 | 0.00 | 37 | 1018.6 |
| 20260509160517 | 16 | 31 | 0.0 | 1.6 | 0.00 | 0.00 | 0.00 | 37 | 1018.5 |
| 20260509155519 | 16 | 301 | 0.0 | 3.2 | 0.00 | 0.00 | 0.00 | 37 | 1018.6 |
| 20260509154518 | 16 | 19 | 0.0 | 1.6 | 0.00 | 0.00 | 0.00 | 37 | 1018.6 |
| 20260509153517 | 16 | 7 | 0.0 | 3.2 | 0.00 | 0.00 | 0.00 | 37 | 1018.6 |
| 20260509152519 | 16 | 242 | 0.0 | 1.6 | 0.00 | 0.00 | 0.00 | 36 | 1018.6 |
| 20260509151518 | 16 | 301 | 1.6 | 3.2 | 0.00 | 0.00 | 0.00 | 36 | 1018.6 |
| 20260509150517 | 16 | 306 | 0.0 | 1.6 | 0.00 | 0.00 | 0.00 | 35 | 1018.6 |
| 20260509145539 | 16 | 310 | 0.0 | 3.2 | 0.00 | 0.00 | 0.00 | 35 | 1018.5 |
| 20260509144518 | 16 | 325 | 1.6 | 6.4 | 0.00 | 0.00 | 0.00 | 34 | 1018.5 |
| 20260509143517 | 16 | 0 | 1.6 | 3.2 | 0.00 | 0.00 | 0.00 | 34 | 1018.4 |
| 20260509142519 | 16 | 15 | 1.6 | 3.2 | 0.00 | 0.00 | 0.00 | 33 | 1018.3 |
| 20260509141518 | 17 | 356 | 0.0 | 3.2 | 0.00 | 0.00 | 0.00 | 32 | 1018.2 |
| 20260509140517 | 17 | 303 | 1.6 | 3.2 | 0.00 | 0.00 | 0.00 | 31 | 1018.1 |
| 20260509135519 | 17 | 29 | 1.6 | 3.2 | 0.00 | 0.00 | 0.00 | 30 | 1018.0 |
| 20260509134517 | 17 | 33 | 0.0 | 3.2 | 0.00 | 0.00 | 0.00 | 29 | 1017.9 |
| 20260509133516 | 17 | 3 | 1.6 | 1.6 | 0.00 | 0.00 | 0.00 | 28 | 1017.8 |
| 20260509132519 | 17 | 294 | 1.6 | 4.8 | 0.00 | 0.00 | 0.00 | 28 | 1017.7 |
| 20260509131518 | 17 | 18 | 1.6 | 4.8 | 0.00 | 0.00 | 0.00 | 27 | 1017.6 |
| 20260509130517 | 17 | 354 | 0.0 | 1.6 | 0.00 | 0.00 | 0.00 | 27 | 1017.5 |
| 20260509125519 | 17 | 310 | 0.0 | 1.6 | 0.00 | 0.00 | 0.00 | 27 | 1017.4 |
| 20260509124518 | 18 | 9 | 0.0 | 1.6 | 0.00 | 0.00 | 0.00 | 27 | 1017.3 |
| 20260509123517 | 18 | 31 | 0.0 | 1.6 | 0.00 | 0.00 | 0.00 | 26 | 1017.3 |
| 20260509122519 | 18 | 298 | 0.0 | 3.2 | 0.00 | 0.00 | 0.00 | 26 | 1017.3 |
| 20260509121518 | 18 | 14 | 0.0 | 1.6 | 0.00 | 0.00 | 0.00 | 26 | 1017.2 |
| 20260509120517 | 18 | 315 | 0.0 | 3.2 | 0.00 | 0.00 | 0.00 | 25 | 1017.0 |
| 20260509115524 | 18 | 310 | 0.0 | 1.6 | 0.00 | 0.00 | 0.00 | 24 | 1017.0 |
| 20260509114518 | 18 | 18 | 1.6 | 3.2 | 0.00 | 0.00 | 0.00 | 23 | 1016.9 |
| 20260509113517 | 18 | 354 | 0.0 | 3.2 | 0.00 | 0.00 | 0.00 | 23 | 1016.8 |
| 20260509112519 | 18 | 289 | 0.0 | 1.6 | 0.00 | 0.00 | 0.00 | 23 | 1016.6 |
| 20260509111538 | 19 | 293 | 0.0 | 3.2 | 0.00 | 0.00 | 0.00 | 23 | 1016.5 |
| 20260509110517 | 19 | 328 | 0.0 | 1.6 | 0.00 | 0.00 | 0.00 | 22 | 1016.4 |
| 20260509105516 | 19 | 16 | 1.6 | 3.2 | 0.00 | 0.00 | 0.00 | 23 | 1016.3 |
| 20260509104518 | 19 | 268 | 0.0 | 4.8 | 0.00 | 0.00 | 0.00 | 23 | 1016.1 |
| 20260509103537 | 19 | 17 | 1.6 | 3.2 | 0.00 | 0.00 | 0.00 | 23 | 1016.0 |
| 20260509102519 | 19 | 15 | 1.6 | 4.8 | 0.00 | 0.00 | 0.00 | 23 | 1015.7 |
| 20260509101518 | 19 | 334 | 0.0 | 3.2 | 0.00 | 0.00 | 0.00 | 22 | 1015.5 |
| 20260509100517 | 20 | 29 | 1.6 | 3.2 | 0.00 | 0.00 | 0.00 | 22 | 1015.4 |
| 20260509095600 | 20 | 47 | 0.0 | 1.6 | 0.00 | 0.00 | 0.00 | 22 | 1015.3 |
| 20260509094518 | 20 | 35 | 1.6 | 3.2 | 0.00 | 0.00 | 0.00 | 21 | 1015.1 |
| 20260509093517 | 20 | 40 | 0.0 | 3.2 | 0.00 | 0.00 | 0.00 | 21 | 1014.9 |
| 20260509092540 | 21 | 269 | 1.6 | 3.2 | 0.00 | 0.00 | 0.00 | 20 | 1014.7 |
| 20260509091518 | 21 | 10 | 1.6 | 4.8 | 0.00 | 0.00 | 0.00 | 20 | 1014.5 |
| 20260509090538 | 21 | 1 | 1.6 | 3.2 | 0.00 | 0.00 | 0.00 | 20 | 1014.3 |
| 20260509085516 | 21 | 81 | 0.0 | 1.6 | 0.00 | 0.00 | 0.00 | 20 | 1014.2 |
| 20260509084518 | 22 | 10 | 1.6 | 4.8 | 0.00 | 0.00 | 0.00 | 19 | 1014.0 |
| 20260509083517 | 23 | 360 | 1.6 | 6.4 | 0.00 | 0.00 | 0.00 | 18 | 1013.8 |
| 20260509082536 | 24 | 356 | 1.6 | 3.2 | 0.00 | 0.00 | 0.00 | 18 | 1013.6 |
| 20260509081518 | 24 | 17 | 3.2 | 8.0 | 0.00 | 0.00 | 0.00 | 18 | 1013.6 |
| 20260509080523 | 24 | 358 | 3.2 | 6.4 | 0.00 | 0.00 | 0.00 | 18 | 1013.4 |
| 20260509075516 | 25 | 27 | 1.6 | 4.8 | 0.00 | 0.00 | 0.00 | 17 | 1013.2 |
| 20260509074518 | 25 | 16 | 1.6 | 8.0 | 0.00 | 0.00 | 0.00 | 18 | 1013.1 |
| 20260509073517 | 25 | 8 | 1.6 | 4.8 | 0.00 | 0.00 | 0.00 | 18 | 1012.8 |
| 20260509072516 | 25 | 19 | 1.6 | 6.4 | 0.00 | 0.00 | 0.00 | 18 | 1012.5 |
| 20260509071518 | 24 | 336 | 1.6 | 4.8 | 0.00 | 0.00 | 0.00 | 19 | 1012.4 |
| 20260509070517 | 25 | 18 | 3.2 | 8.0 | 0.00 | 0.00 | 0.00 | 19 | 1012.2 |
| 20260509065516 | 26 | 28 | 1.6 | 4.8 | 0.00 | 0.00 | 0.00 | 18 | 1011.9 |
| 20260509064518 | 25 | 19 | 3.2 | 6.4 | 0.00 | 0.00 | 0.00 | 18 | 1011.9 |
| 20260509063520 | 25 | 355 | 1.6 | 4.8 | 0.00 | 0.00 | 0.00 | 19 | 1011.9 |
| 20260509062517 | 25 | 16 | 3.2 | 6.4 | 0.00 | 0.00 | 0.00 | 20 | 1012.0 |
| 20260509061518 | 25 | 10 | 4.8 | 11.3 | 0.00 | 0.00 | 0.00 | 19 | 1011.9 |
| 20260509060517 | 26 | 31 | 3.2 | 6.4 | 0.00 | 0.00 | 0.00 | 20 | 1011.7 |
| 20260509055516 | 25 | 41 | 1.6 | 6.4 | 0.00 | 0.00 | 0.00 | 20 | 1011.7 |
| 20260509054518 | 26 | 16 | 1.6 | 6.4 | 0.00 | 0.00 | 0.00 | 20 | 1011.7 |
| 20260509053517 | 25 | 333 | 3.2 | 8.0 | 0.00 | 0.00 | 0.00 | 21 | 1011.8 |
| 20260509052536 | 25 | 6 | 4.8 | 9.7 | 0.00 | 0.00 | 0.00 | 21 | 1011.7 |
| 20260509051558 | 24 | 346 | 3.2 | 11.3 | 0.00 | 0.00 | 0.00 | 22 | 1011.6 |
| 20260509050516 | 23 | 341 | 4.8 | 14.5 | 0.00 | 0.00 | 0.00 | 23 | 1011.6 |
| 20260509045519 | 24 | 332 | 4.8 | 16.1 | 0.00 | 0.00 | 0.00 | 23 | 1011.5 |
| 20260509044517 | 24 | 5 | 4.8 | 11.3 | 0.00 | 0.00 | 0.00 | 23 | 1011.4 |
| 20260509043516 | 25 | 13 | 3.2 | 8.0 | 0.00 | 0.00 | 0.00 | 23 | 1011.8 |
| 20260509042518 | 23 | 16 | 3.2 | 12.9 | 0.00 | 0.00 | 0.00 | 24 | 1012.1 |
| 20260509041537 | 24 | 23 | 3.2 | 6.4 | 0.00 | 0.00 | 0.00 | 24 | 1012.2 |
| 20260509040516 | 23 | 27 | 3.2 | 9.7 | 0.00 | 0.00 | 0.00 | 24 | 1012.3 |
| 20260509035558 | 23 | 16 | 4.8 | 11.3 | 0.00 | 0.00 | 0.00 | 24 | 1012.3 |
| 20260509034517 | 23 | 18 | 3.2 | 16.1 | 0.00 | 0.00 | 0.00 | 25 | 1012.3 |
| 20260509033516 | 22 | 1 | 4.8 | 14.5 | 0.00 | 0.00 | 0.00 | 26 | 1012.3 |
| 20260509032518 | 23 | 287 | 3.2 | 8.0 | 0.00 | 0.00 | 0.00 | 26 | 1012.1 |
| 20260509031517 | 23 | 22 | 3.2 | 11.3 | 0.00 | 0.00 | 0.00 | 26 | 1012.1 |
| 20260509030516 | 22 | 318 | 4.8 | 8.0 | 0.00 | 0.00 | 0.00 | 26 | 1012.1 |
| 20260509025518 | 22 | 13 | 3.2 | 11.3 | 0.00 | 0.00 | 0.00 | 27 | 1012.2 |
| 20260509024517 | 22 | 334 | 3.2 | 11.3 | 0.00 | 0.00 | 0.00 | 27 | 1012.1 |
| 20260509023519 | 22 | 2 | 3.2 | 11.3 | 0.00 | 0.00 | 0.00 | 27 | 1012.2 |
| 20260509022518 | 22 | 15 | 4.8 | 14.5 | 0.00 | 0.00 | 0.00 | 27 | 1012.2 |
| 20260509021537 | 22 | 329 | 3.2 | 9.7 | 0.00 | 0.00 | 0.00 | 27 | 1012.2 |
| 20260509020520 | 22 | 10 | 4.8 | 9.7 | 0.00 | 0.00 | 0.00 | 28 | 1012.2 |
| 20260509015518 | 22 | 331 | 3.2 | 11.3 | 0.00 | 0.00 | 0.00 | 28 | 1012.2 |
| 20260509014516 | 22 | 342 | 3.2 | 12.9 | 0.00 | 0.00 | 0.00 | 28 | 1012.1 |
| 20260509013519 | 22 | 10 | 4.8 | 14.5 | 0.00 | 0.00 | 0.00 | 28 | 1012.2 |
| 20260509012518 | 22 | 337 | 3.2 | 6.4 | 0.00 | 0.00 | 0.00 | 28 | 1012.1 |
| 20260509011516 | 21 | 351 | 3.2 | 11.3 | 0.00 | 0.00 | 0.00 | 29 | 1012.2 |
| 20260509010538 | 22 | 6 | 3.2 | 9.7 | 0.00 | 0.00 | 0.00 | 30 | 1011.8 |
| 20260509005517 | 22 | 296 | 3.2 | 11.3 | 0.00 | 0.00 | 0.00 | 29 | 1011.4 |
| 20260509004516 | 22 | 336 | 3.2 | 12.9 | 0.00 | 0.00 | 0.00 | 28 | 1011.3 |
| 20260509003518 | 21 | 5 | 3.2 | 9.7 | 0.00 | 0.00 | 0.00 | 28 | 1011.3 |
| 20260509002517 | 21 | 319 | 3.2 | 9.7 | 0.00 | 0.00 | 0.00 | 27 | 1011.1 |
| 20260509001516 | 21 | 334 | 1.6 | 8.0 | 0.00 | 0.00 | 0.00 | 28 | 1011.1 |
| 20260509000518 | 20 | 297 | 1.6 | 6.4 | 0.00 | 0.00 | 0.00 | 28 | 1011.1 |
| 20260508235517 | 21 | 6 | 3.2 | 6.4 | 0.00 | 0.00 | 0.00 | 27 | 1010.9 |
| 20260508234516 | 21 | 315 | 1.6 | 6.4 | 0.00 | 0.00 | 0.00 | 26 | 1010.7 |
| 20260508233539 | 21 | 23 | 1.6 | 3.2 | 0.00 | 0.00 | 0.00 | 26 | 1010.6 |
| 20260508232517 | 22 | 340 | 1.6 | 9.7 | 0.00 | 0.00 | 0.00 | 24 | 1010.3 |
| 20260508231516 | 22 | 292 | 1.6 | 4.8 | 0.00 | 0.00 | 0.00 | 24 | 1010.1 |
| 20260508230518 | 22 | 305 | 1.6 | 4.8 | 0.00 | 0.00 | 0.00 | 23 | 1010.0 |
| 20260508225517 | 22 | 324 | 1.6 | 4.8 | 0.00 | 0.00 | 0.00 | 23 | 1009.9 |
| 20260508224519 | 21 | 30 | 0.0 | 1.6 | 0.00 | 0.00 | 0.00 | 24 | 1009.8 |
| 20260508223517 | 21 | 76 | 0.0 | 1.6 | 0.00 | 0.00 | 0.00 | 24 | 1009.6 |
| 20260508222517 | 20 | 287 | 0.0 | 1.6 | 0.00 | 0.00 | 0.00 | 24 | 1009.5 |
| 20260508221559 | 21 | 219 | 1.6 | 3.2 | 0.00 | 0.00 | 0.00 | 24 | 1009.3 |
| 20260508220538 | 21 | 335 | 1.6 | 3.2 | 0.00 | 0.00 | 0.00 | 24 | 1009.3 |
| 20260508215516 | 19 | 295 | 1.6 | 3.2 | 0.00 | 0.00 | 0.00 | 26 | 1009.1 |
| 20260508214519 | 18 | 275 | 0.0 | 1.6 | 0.00 | 0.00 | 0.00 | 28 | 1008.9 |
| 20260508213518 | 17 | 291 | 0.0 | 1.6 | 0.00 | 0.00 | 0.00 | 28 | 1008.6 |
| 20260508212537 | 17 | 344 | 1.6 | 3.2 | 0.00 | 0.00 | 0.00 | 28 | 1008.4 |
| 20260508211519 | 17 | 352 | 0.0 | 1.6 | 0.00 | 0.00 | 0.00 | 28 | 1008.2 |
| 20260508210517 | 17 | 316 | 0.0 | 1.6 | 0.00 | 0.00 | 0.00 | 29 | 1008.0 |
| 20260508205516 | 17 | 232 | 0.0 | 3.2 | 0.00 | 0.00 | 0.00 | 29 | 1007.9 |
| 20260508204518 | 16 | 293 | 1.6 | 3.2 | 0.00 | 0.00 | 0.00 | 28 | 1007.7 |
| 20260508203517 | 16 | 266 | 0.0 | 1.6 | 0.00 | 0.00 | 0.00 | 28 | 1007.6 |